[[{"header":{"parameterUnit":"m.s-1","parameterCategory":1,"la1":30.2991,"la2":30.254,"lo1":-89.0895,"lo2":-89.0444,"dy":0.0017,"dx":0.0017,"nx":28,"ny":28,"refTime":"2024-07-28T21:00:00:Z","depth":0,"parameterNumber":2,"parameterNumberName":"U-component_of_WINDS"},"data":[0,0,0,0,0,0,0,0,0,0,0,0,0,0,0,0,0,0,0,0,0,0,0,0,0,0,0,0,0,0,0,0,0,0,0,0,0,0,0,0,0,0,0,0,0,0,0,0,0,0,0,0,0,0,0,0,0,0,2.4579,2.458,0,2.4691,2.4692,2.4694,2.4699,2.4698,2.4696,2.4695,2.4816,2.4821,2.4825,0,0,0,0,0,0,0,0,0,0,0,0,0,2.4375,2.4378,2.4578,2.458,2.4581,2.4691,2.4692,2.4694,2.4699,2.4697,2.4696,2.4694,2.4815,2.482,2.4825,0,0,0,0,0,0,0,0,0,0,0,0,0,2.4473,2.438,2.4578,2.4597,2.46,2.469,2.4692,2.4694,2.4699,2.4697,2.4695,2.4694,2.4813,2.482,2.4826,2.4908,0,0,2.4847,2.485,0,0,0,0,0,0,0,0,2.4467,2.448,2.4593,2.4596,2.4599,2.4679,2.4665,2.4766,2.47,2.4662,2.4695,2.4693,2.4773,2.4782,2.4808,2.4913,2.4919,2.4847,2.4851,2.4854,2.4856,0,0,0,0,0,0,0,2.446,2.4476,2.4623,2.4594,2.4598,2.4602,2.4614,2.4684,2.4727,2.4665,2.4666,2.4678,2.4774,2.4802,2.4811,2.492,2.4847,2.4853,2.4857,2.486,2.5099,2.5102,0,0,0,0,0,0,2.4449,2.447,2.462,2.4627,2.4527,2.4607,2.462,2.4655,2.4726,2.4735,2.468,2.4678,2.4791,2.4803,2.4815,2.4915,2.4854,2.4861,2.4864,2.5097,2.51,2.5102,0,0,0,0,0,0,2.4445,2.4462,2.4615,2.4548,2.4568,2.4613,2.4652,2.4659,2.4686,2.4738,2.4746,2.47,2.479,2.4806,2.4884,2.492,2.4864,2.487,2.5094,2.5098,2.5101,2.5116,0,0,0,0,0,0,2.4439,2.4461,2.4491,2.4549,2.4572,2.468,2.4654,2.4662,2.4697,2.4696,2.4759,2.4767,2.479,2.4874,2.4891,2.4928,2.4875,2.5091,2.5096,2.51,2.5113,2.512,2.5126,0,0,0,0,0,2.4432,2.4492,2.4492,2.451,2.4609,2.4682,2.4695,2.4718,2.47,2.4731,2.4765,2.4765,2.4913,2.4882,2.4901,2.4941,2.5089,2.5095,2.51,2.511,2.5118,2.5126,0,0,0,0,0,0,2.4438,2.45,2.4501,2.4581,2.4626,2.4683,2.4723,2.4727,2.4779,2.4776,2.4804,2.4819,2.4896,2.4927,2.4891,2.5024,2.4999,2.5009,2.5001,2.5009,2.5016,2.5006,2.488,0,0,0,0,0,2.4449,2.4501,2.4552,2.4619,2.4641,2.4678,2.4711,2.4724,2.4773,2.4793,2.4832,2.4881,2.4938,2.4976,2.5032,2.5118,2.5132,2.5154,2.5161,2.5166,2.5173,2.5221,2.5232,2.512,2.512,2.5119,0,0,2.4471,2.4511,2.4543,2.4621,2.4657,2.4712,2.4694,2.4753,2.4795,2.4802,2.4878,2.4909,2.4966,2.5048,2.5086,2.5076,2.5208,2.5172,2.5176,2.5181,2.5228,2.5238,2.5248,2.5123,2.5122,2.5122,0,0,2.4541,2.4576,2.4635,2.4671,2.4726,2.4751,2.4765,2.4822,2.4842,2.4918,2.4925,2.4976,2.5074,2.5114,2.5148,2.5233,2.5236,2.5251,2.5285,2.5331,2.534,2.5348,2.5378,2.5389,2.5259,2.5259,2.5259,0,2.4562,2.4643,2.4665,2.4723,2.4758,2.4766,2.4827,2.4862,2.4934,2.4958,2.4945,2.5068,2.5107,2.5199,2.522,2.5247,2.5265,2.5243,2.5337,2.5345,2.5353,2.5382,2.5393,2.526,2.526,2.526,2.526,0,2.4667,2.4724,2.4765,2.4831,2.4871,2.4931,2.4963,2.5001,2.5012,2.5038,2.5117,2.5163,2.5229,2.5252,2.5264,2.5346,2.5338,2.533,2.5306,2.5364,2.5392,2.5404,2.5262,2.5261,2.5261,2.5261,0,0,2.4742,2.482,2.4835,2.4865,2.4927,2.4972,2.5033,2.5095,2.5127,2.5177,2.5229,2.5313,2.5306,2.5344,2.5361,2.5402,2.5466,2.539,2.5391,2.5402,2.556,2.5564,2.5577,2.5469,2.5471,2.5473,2.5555,0,2.4818,2.4923,2.4945,2.5038,2.5091,2.51,2.5153,2.5198,2.5224,2.5275,2.5306,2.5364,2.5351,2.5374,2.5415,2.5449,2.5498,2.5444,2.5519,2.5521,2.5503,2.5592,2.5596,2.5671,2.5566,2.5568,2.557,0,2.4919,2.4969,2.5066,2.5121,2.5144,2.5191,2.525,2.5298,2.535,2.5367,2.5409,2.5421,2.5487,2.546,2.5552,2.5514,2.5547,2.5569,2.5572,2.5579,2.5548,2.5601,2.5696,2.5707,2.5587,2.5586,2.5584,0,2.4964,2.5056,2.5125,2.5151,2.5217,2.525,2.528,2.533,2.5366,2.5418,2.5442,2.5503,2.5536,2.5583,2.5612,2.559,2.5701,2.5677,2.5718,2.5717,2.574,2.5738,2.5841,2.5762,2.5762,2.5762,2.5762,0,2.5045,2.5104,2.5146,2.5189,2.5256,2.5282,2.5348,2.5378,2.5422,2.5472,2.5485,2.5532,2.5568,2.5621,2.5645,2.5717,2.5732,2.5748,2.5754,2.5746,2.5744,2.5767,2.5762,2.5765,2.5764,2.5764,2.5763,0,2.5105,2.5136,2.5212,2.5268,2.5284,2.5331,2.538,2.5423,2.545,2.5514,2.553,2.5574,2.5637,2.5671,2.575,2.5766,2.5847,2.585,2.5828,2.583,2.5869,2.5864,2.599,2.6008,2.5918,2.5919,2.5919,0,2.5154,2.5199,2.526,2.5294,2.5323,2.5378,2.5414,2.5443,2.548,2.5543,2.5579,2.5642,2.5694,2.5795,2.5835,2.5896,2.59,2.594,2.5909,2.59,2.59,2.5896,2.5901,2.5945,2.5945,2.5946,2.5947,0,2.5238,2.5251,2.5302,2.5359,2.5402,2.5449,2.5495,2.5522,2.5559,2.5601,2.5664,2.5704,2.5785,2.5848,2.5912,2.5945,2.5952,2.5956,2.5969,2.5961,2.5946,2.5954,2.5842,2.5953,2.5952,2.5952,2.5951,2.5951,2.5294,2.5334,2.5383,2.544,2.5478,2.5521,2.5564,2.5596,2.5649,2.5715,2.573,2.5797,2.5849,2.5936,2.597,2.6024,2.6017,2.6035,2.6039,2.6043,2.6044,2.5938,2.6036,2.6036,2.6036,2.6036,2.6036,0,2.5377,2.5409,2.5462,2.5525,2.557,2.5572,2.5624,2.5662,2.572,2.5767,2.5818,2.5891,2.5953,2.5998,2.6061,2.6095,2.61,2.6111,2.6108,2.6115,2.6048,2.603,2.6106,2.6106,2.6106,2.6106,2.6106,2.6106,2.5426,2.5495,2.5514,2.5602,2.5635,2.5699,2.5728,2.5768,2.5806,2.5887,2.5937,2.5965,2.6012,2.6079,2.6136,2.6148,2.617,2.618,2.6192,2.6128,2.612,2.6113,2.6097,2.6185,2.6185,2.6255,2.6256,2.6256]},{"header":{"parameterUnit":"m.s-1","parameterCategory":1,"la1":30.2991,"la2":30.254,"lo1":-89.0895,"lo2":-89.0444,"dy":0.0017,"dx":0.0017,"nx":28,"ny":28,"refTime":"2024-07-28T21:00:00:Z","depth":0,"parameterNumber":3,"parameterNumberName":"V-component_of_WINDS"},"data":[0,0,0,0,0,0,0,0,0,0,0,0,0,0,0,0,0,0,0,0,0,0,0,0,0,0,0,0,0,0,0,0,0,0,0,0,0,0,0,0,0,0,0,0,0,0,0,0,0,0,0,0,0,0,0,0,0,0,3.8458,3.8459,0,3.8527,3.8528,3.8529,3.8539,3.8539,3.8538,3.8537,3.8603,3.8605,3.8608,0,0,0,0,0,0,0,0,0,0,0,0,0,3.8327,3.8329,3.8458,3.8459,3.846,3.8527,3.8528,3.8529,3.8539,3.8539,3.8538,3.8537,3.8602,3.8605,3.8608,0,0,0,0,0,0,0,0,0,0,0,0,0,3.8389,3.833,3.8458,3.8473,3.8475,3.8527,3.8528,3.8529,3.8539,3.8538,3.8538,3.8537,3.8602,3.8605,3.8608,3.8648,0,0,3.8619,3.862,0,0,0,0,0,0,0,0,3.8385,3.8393,3.847,3.8472,3.8474,3.8524,3.8506,3.8569,3.854,3.8515,3.8537,3.8536,3.8577,3.8583,3.8597,3.8651,3.8654,3.8619,3.8621,3.8623,3.8624,0,0,0,0,0,0,0,3.8381,3.839,3.8485,3.8471,3.8474,3.8474,3.8482,3.8518,3.855,3.8517,3.8518,3.8526,3.8578,3.8594,3.8599,3.8655,3.8619,3.8622,3.8624,3.8626,3.8739,3.874,0,0,0,0,0,0,3.8375,3.8387,3.8483,3.8487,3.8427,3.8477,3.8486,3.8509,3.855,3.8555,3.8527,3.8526,3.8588,3.8595,3.8601,3.8648,3.8623,3.8626,3.8628,3.8738,3.874,3.8741,0,0,0,0,0,0,3.8372,3.8383,3.848,3.8437,3.845,3.848,3.8506,3.851,3.8526,3.8557,3.8562,3.8538,3.8588,3.8596,3.8636,3.865,3.8628,3.8631,3.8737,3.8739,3.874,3.8742,0,0,0,0,0,0,3.8368,3.8382,3.84,3.8438,3.8452,3.8516,3.8507,3.8513,3.8533,3.8533,3.8569,3.8574,3.8588,3.863,3.8639,3.8654,3.8634,3.8736,3.8738,3.874,3.8741,3.8743,3.8746,0,0,0,0,0,3.8363,3.8397,3.8401,3.8412,3.8475,3.8517,3.8524,3.8542,3.8534,3.855,3.8569,3.8573,3.8647,3.8634,3.8644,3.8661,3.8735,3.8737,3.8739,3.874,3.8743,3.8746,0,0,0,0,0,0,3.836,3.8403,3.8407,3.8455,3.8482,3.8518,3.854,3.8545,3.8574,3.8572,3.859,3.8598,3.8636,3.8652,3.8637,3.8699,3.869,3.8694,3.8687,3.869,3.8693,3.8687,3.8636,0,0,0,0,0,3.8365,3.8397,3.8432,3.847,3.8484,3.8509,3.8528,3.8539,3.8567,3.8578,3.86,3.8626,3.8655,3.8673,3.8702,3.8743,3.8749,3.8759,3.8761,3.8763,3.8766,3.8785,3.8789,3.8747,3.8747,3.8747,0,0,3.8375,3.8402,3.8422,3.847,3.8493,3.8523,3.8519,3.8552,3.8574,3.8583,3.8621,3.8638,3.8667,3.8706,3.8725,3.8721,3.8779,3.8766,3.8767,3.8769,3.8788,3.8792,3.8795,3.8749,3.8749,3.8748,0,0,3.8408,3.8434,3.8467,3.8489,3.8523,3.8539,3.8547,3.8582,3.8593,3.8632,3.8638,3.8663,3.8713,3.8733,3.8749,3.8786,3.8789,3.8794,3.8807,3.8825,3.8828,3.8831,3.8842,3.8846,3.8798,3.8798,3.8798,0,3.8417,3.8465,3.8483,3.8515,3.8535,3.8545,3.8576,3.8596,3.8637,3.8649,3.8644,3.8705,3.8726,3.8768,3.8777,3.8791,3.8798,3.8791,3.8827,3.883,3.8833,3.8843,3.8847,3.8798,3.8798,3.8798,3.8798,0,3.8471,3.8504,3.8526,3.8565,3.8587,3.8619,3.864,3.8659,3.8667,3.8682,3.8719,3.8743,3.8775,3.8786,3.8794,3.8829,3.8825,3.8824,3.8815,3.8837,3.8847,3.8851,3.8798,3.8798,3.8798,3.8798,0,0,3.8507,3.8553,3.8561,3.8577,3.8614,3.8638,3.8668,3.87,3.8715,3.8742,3.8766,3.8806,3.8804,3.8823,3.8832,3.8849,3.8872,3.8845,3.8845,3.8847,3.8908,3.8908,3.8913,3.8874,3.8875,3.8876,3.8905,0,3.8543,3.8599,3.8615,3.8661,3.8689,3.8697,3.8722,3.8746,3.876,3.8784,3.8798,3.8826,3.8823,3.8833,3.885,3.8866,3.8884,3.8864,3.8894,3.8895,3.8886,3.8918,3.8919,3.8945,3.8909,3.891,3.891,0,3.8594,3.8621,3.867,3.8699,3.8712,3.8735,3.8763,3.8787,3.8812,3.8821,3.884,3.8848,3.8876,3.8866,3.8903,3.8889,3.8902,3.8911,3.8912,3.8915,3.8903,3.892,3.8955,3.8958,3.8917,3.8916,3.8916,0,3.8611,3.866,3.8695,3.8709,3.8745,3.876,3.8775,3.88,3.8817,3.8841,3.8851,3.8878,3.8893,3.8912,3.8925,3.8917,3.896,3.8952,3.8966,3.8965,3.8974,3.8974,3.901,3.8985,3.8985,3.8985,3.8984,0,3.8649,3.8678,3.8703,3.8725,3.8756,3.8772,3.8802,3.8817,3.8838,3.886,3.8868,3.8888,3.8905,3.8926,3.8936,3.8964,3.8971,3.8977,3.8979,3.8975,3.8974,3.8983,3.8981,3.8986,3.8985,3.8985,3.8985,0,3.8674,3.8693,3.8731,3.8761,3.8768,3.879,3.8814,3.8834,3.8847,3.8875,3.8882,3.8902,3.8928,3.8943,3.8975,3.8981,3.9012,3.9014,3.9003,3.9004,3.9017,3.9015,3.9059,3.9065,3.9037,3.9037,3.9038,0,3.8697,3.872,3.8751,3.8767,3.8782,3.8808,3.8825,3.884,3.8857,3.8885,3.89,3.8926,3.8948,3.8988,3.9004,3.9028,3.9029,3.9043,3.9033,3.9028,3.9027,3.9025,3.9026,3.9045,3.9045,3.9045,3.9045,0,3.8734,3.8741,3.8767,3.8794,3.8814,3.8836,3.8858,3.887,3.8888,3.8906,3.8932,3.8949,3.8981,3.9006,3.903,3.9043,3.9046,3.9048,3.9052,3.9049,3.9041,3.9043,3.9007,3.9047,3.9047,3.9047,3.9047,3.9047,3.8758,3.8776,3.8801,3.8828,3.8845,3.8865,3.8883,3.8899,3.8921,3.8949,3.8956,3.8983,3.9003,3.9037,3.905,3.9069,3.9067,3.9074,3.9075,3.9076,3.9075,3.9039,3.9074,3.9074,3.9074,3.9074,3.9074,0,3.8793,3.8809,3.8833,3.8863,3.8883,3.8885,3.8908,3.8924,3.8948,3.8968,3.8988,3.9017,3.904,3.9057,3.908,3.9092,3.9094,3.9097,3.9096,3.9099,3.9077,3.9071,3.9096,3.9096,3.9095,3.9095,3.9095,3.9095,3.8814,3.8845,3.8855,3.8893,3.8908,3.8935,3.8948,3.8964,3.898,3.9012,3.9031,3.9043,3.906,3.9084,3.9104,3.9109,3.9116,3.9119,3.9123,3.9103,3.91,3.9098,3.9092,3.9121,3.9121,3.9142,3.9143,3.9143]}]]